AirNav   Air Wisconsin Up To $57,000 Bonus
 
 653 users online  

15J Cook County Airport
Adel, Georgia, USA

GOING TO ADEL?


FAA INFORMATION EFFECTIVE 05 DECEMBER 2019

Location

FAA Identifier: 15J
Lat/Long: 31-08-13.6372N 083-27-13.7587W
31-08.227287N 083-27.229312W
31.1371214,-83.4538219
(estimated)
Elevation: 236 ft. / 72 m (estimated)
Variation: 04W (2000)
From city: 1 mile W of ADEL, GA
Time zone: UTC -5 (UTC -4 during Daylight Saving Time)
Zip code: 31620

Airport Operations

Airport use: Open to the public
Activation date: 01/1943
Control tower: no
ARTCC: JACKSONVILLE CENTER
FSS: MACON FLIGHT SERVICE STATION
NOTAMs facility: MCN (NOTAM-D service available)
Attendance: MON - SAT 0800-1700
Wind indicator: lighted
Segmented circle: yes
Lights: ACTVT MIRL, PAPI'S, RY 05/23 - CTAF.
Beacon: white-green (lighted land airport)
Operates sunset to sunrise.

Airport Communications

CTAF/UNICOM: 122.8
VALDOSTA APPROACH: 126.6 ;EAST OF VAD 360-VAD 180 132.375 ;WEST OF VAD R-360 RADIAL
VALDOSTA DEPARTURE: 126.6 ;EAST OF VAD 360-VAD 180 132.375 ;WEST OF VAD R-360 RADIAL
IC: 126.6 ;EAST OF VAD 360-VAD 180
WX AWOS-3PT at TMA (18 nm N): 118.525 (229-386-8937)
WX AWOS-3PT at MGR (18 nm W): 118.925 (229-890-5320)
  • APCH/DEP SVC PRVDD BY JACKSONVILLE ARTCC ON FREQS 133.7/399.6 (VALDOSTA RCAG) WHEN VALDOSTA APCH CTL CLSD.

Nearby radio navigation aids

VOR radial/distance  VOR name  Freq  Var
IFMr175/(17.6)TIFT MYERS VOR112.5001W
OTKr339/23.2VALDOSTA VOR/DME114.8002W
GEFr025/39.0GREENVILLE VORTAC109.0001E

 
NDB name  Hdg/Dist  Freq  Var  ID
PATON066/22.024505WGTP --. - .--.
FITZGERALD201/29.736205WSUR ... ..- .-.
COFFEE COUNTY245/31.639006WOWC --- .-- -.-.
HOMERVILLE284/35.420906WHOE .... --- .
CAIDY072/39.233804WCYR -.-. -.-- .-.

Airport Services

Fuel available: 100LL JET-A+
Parking: hangars and tiedowns
Airframe service: MAJOR
Powerplant service: MAJOR
Bottled oxygen: NONE
Bulk oxygen: NONE

Runway Information

Runway 5/23

Dimensions: 5001 x 100 ft. / 1524 x 30 m
Surface: asphalt, in good condition
Weight bearing capacity: 
Single wheel: 30.0
Double wheel: 30.0
Runway edge lights: medium intensity
RUNWAY 5  RUNWAY 23
Latitude: 31-07.843157N31-08.402143N
Longitude: 083-27.652318W083-26.947070W
Elevation: 232.5 ft.234.5 ft.
Traffic pattern: leftleft
Runway heading: 051 magnetic, 047 true231 magnetic, 227 true
Markings: nonprecision, in fair conditionnonprecision, in fair condition
Visual slope indicator: 2-light PAPI on left (3.00 degrees glide path)2-light PAPI on left (3.00 degrees glide path)
Touchdown point: yes, no lightsyes, no lights
Obstructions: none15 ft. road, 350 ft. from runway, 262 ft. right of centerline, 10:1 slope to clear

Runway 15/33

Dimensions: 3999 x 100 ft. / 1219 x 30 m
Surface: asphalt, in good condition
Weight bearing capacity: 
Single wheel: 30.0
Double wheel: 30.0
RUNWAY 15  RUNWAY 33
Latitude: 31-08.627833N31-08.088333N
Longitude: 083-27.362000W083-26.920667W
Elevation: 234.5 ft.234.4 ft.
Traffic pattern: leftleft
Runway heading: 149 magnetic, 145 true329 magnetic, 325 true
Displaced threshold: 600 ft.350 ft.
Markings: basic, in good conditionbasic, in good condition
Touchdown point: yes, no lightsyes, no lights
Obstructions: 15 ft. road, 395 ft. from runway, 13:1 slope to clear
RY 15 APCH RATIO 50:1 TO DSPLCD THLD.
15 ft. road, 260 ft. from runway, 4:1 slope to clear
RY 33 APCH RATIO 25:1 TO DSPLCD THLD.

Airport Ownership and Management from official FAA records

Ownership: Publicly-owned
Owner: COOK COUNTY
1200 SO. HUTCHISON
ADEL, GA 31620
Phone 229-896-2266
Manager: JERRY CONNELL
160 AIRPORT RD.
ADEL, GA 31620
Phone (229) 507-1340

Airport Operational Statistics

Aircraft based on the field: 20
Single engine airplanes: 18
Multi engine airplanes: 1
Ultralights: 1
    
Aircraft operations: avg 38/day *
37% transient general aviation
37% local general aviation
26% military
* for 12-month period ending 31 December 2018

Additional Remarks

FOR CD CTC VALDOSTA APCH AT 229-257-2207, WHEN APCH CLSD CTC JACKSONVILLE ARTCC AT 904-845-1592.

Instrument Procedures

NOTE: All procedures below are presented as PDF files. If you need a reader for these files, you should download the free Adobe Reader.

NOT FOR NAVIGATION. Please procure official charts for flight.
FAA instrument procedures published for use from 05 December 2019 at 0900Z to 02 January 2020 at 0900Z.

 
IAPs - Instrument Approach Procedures
RNAV (GPS) RWY 05   download (166KB)
RNAV (GPS) RWY 23   download (185KB)
NOTE: Special Take-Off Minimums/Departure Procedures apply   download (189KB)

Other nearby airports with instrument procedures:

4J2 - Berrien County Airport (13 nm E)
KVAD - Moody Air Force Base (17 nm SE)
KTMA - Henry Tift Myers Airport (18 nm N)
KMGR - Moultrie Municipal Airport (18 nm W)
4J5 - Quitman Brooks County Airport (21 nm S)
 
Loc | Ops | Rwys | IFR | FBO | Links
Com | Nav | Svcs | Stats | Notes
Area around 15J (Cook County Airport)
 
Road maps at: MapQuest Bing Google
 
Aerial photo
WARNING: Photo may not be current or correct
Aerial photo of 15J (Cook County Airport)
Do you have a better or more recent aerial photo of Cook County Airport that you would like to share? If so, please send us your photo.

 
Sectional chart

 
Airport distance calculator
Flying to Cook County Airport? Find the distance to fly.

From to 15J

Sunrise and sunset
Times for 11-Dec-2019
 Local
(UTC-5)
 Zulu
(UTC)
Morning civil twilight06:5711:57
Sunrise07:2312:23
Sunset17:3122:31
Evening civil twilight17:5822:58

Current date and time
Zulu (UTC)  11-Dec-2019 13:06:46
Local (UTC-5)  11-Dec-2019 08:06:46
 
METAR
KVAD 
17nm SE 
111256Z AUTO 36007KT 10SM CLR 09/07 A3028 RMK AO2 SLP256 T00910067 PWINO $
KTMA 
18nm N 
111255Z AUTO 02004KT 10SM CLR 08/05 A3029 RMK AO2 T00780048
KMGR 
18nm W 
111255Z AUTO 01005KT 10SM BKN095 08/05 A3030 RMK AO2
KVLD 
24nm SE 
111253Z 36006KT 10SM SCT011 10/07 A3028 RMK AO2 SLP263 T01000072
KTVI 
26nm SW 
111255Z AUTO 02007KT 10SM BKN080 08/05 A3031 RMK AO2
TAF
KVAD 
17nm SE 
111155Z 1111/1215 35012G18KT 9999 SCT040 QNH3019INS BECMG 1117/1118 01009KT 9999 BKN040 QNH3033INS TEMPO 1119/1121 01009KT 8000 -SHRA BECMG 1203/1204 04007KT 9999 BKN050 QNH3041INS TX15/1119Z TN11/1213Z
NOTAMs
Click for the latest NOTAMs
NOTAMs are issued by the DoD/FAA and will open in a separate window not controlled by AirNav.

 

 
 

FBO, Fuel Providers, and Aircraft Ground Support

  
 Business Name 
 
 Contact 
 
 Services / Description 
 
Fuel Prices
 
Comments
  
Cook County Airport 229-896-3858 Airport management, Aviation fuel

More info about Cook County Airport
independent
100LL Jet A
SS $4.00 $4.00 
 Updated 04-Dec-2019
 
   7 read write
SS=Self service
Update Fuel Prices
 

Would you like to see your business listed on this page?

 If your business provides an interesting product or service to pilots, flight crews, aircraft, or users of the Cook County Airport, you should consider listing it here.  To start the listing process, click on the button below
 
Add a business
 

Other Pages about Cook County Airport

Update a link
 
Copyright © AirNav, LLC. All rights reserved. Privacy Policy  Contact